Time,TemperatureF,DewpointF,PressureIn,WindDirection,WindDirectionDegrees,WindSpeedMPH,WindSpeedGustMPH,Humidity,HourlyPrecipIn,Conditions,Clouds,dailyrainin,SoftwareType,DateUTC
2013-01-03 00:15:00,43.5,41.0,30.12,NNE,30,0.0,1.0,92,0.00,,,0.00,weatherlink.com 1.10,2013-01-03 05:15:00,
2013-01-03 00:30:00,43.4,41.0,30.11,NNE,30,0.0,2.0,90,0.00,,,0.00,weatherlink.com 1.10,2013-01-03 05:30:00,
2013-01-03 00:45:00,43.3,41.0,30.10,NNE,30,0.0,2.0,90,0.00,,,0.00,weatherlink.com 1.10,2013-01-03 05:45:00,
2013-01-03 01:00:00,43.3,42.0,30.10,NNE,30,0.0,0.0,93,0.00,,,0.00,weatherlink.com 1.10,2013-01-03 06:00:00,
2013-01-03 01:15:00,43.2,41.0,30.10,NNE,30,0.0,1.0,91,0.00,,,0.00,weatherlink.com 1.10,2013-01-03 06:15:00,
2013-01-03 01:30:00,43.1,41.0,30.10,NNE,29,0.0,3.0,91,0.00,,,0.00,weatherlink.com 1.10,2013-01-03 06:30:00,
2013-01-03 01:45:00,42.7,40.0,30.13,WNW,285,2.0,4.0,91,0.00,,,0.00,weatherlink.com 1.10,2013-01-03 06:45:00,
2013-01-03 02:00:00,42.0,38.0,30.14,WNW,297,4.0,8.0,86,0.00,,,0.00,weatherlink.com 1.10,2013-01-03 07:00:00,
2013-01-03 02:15:00,41.6,37.0,30.14,NW,310,2.0,7.0,85,0.00,,,0.00,weatherlink.com 1.10,2013-01-03 07:15:00,
2013-01-03 02:30:00,41.3,37.0,30.15,WNW,293,0.0,6.0,84,0.00,,,0.00,weatherlink.com 1.10,2013-01-03 07:30:00,
2013-01-03 02:45:00,40.9,36.0,30.14,NW,306,3.0,6.0,84,0.00,,,0.00,weatherlink.com 1.10,2013-01-03 07:45:00,
2013-01-03 03:00:00,40.7,37.0,30.14,WNW,295,1.0,5.0,85,0.00,,,0.00,weatherlink.com 1.10,2013-01-03 08:00:00,
2013-01-03 03:15:00,40.6,37.0,30.15,NW,307,0.0,4.0,85,0.00,,,0.00,weatherlink.com 1.10,2013-01-03 08:15:00,
2013-01-03 03:30:00,40.5,37.0,30.14,NW,307,0.0,1.0,87,0.00,,,0.00,weatherlink.com 1.10,2013-01-03 08:30:00,
2013-01-03 03:45:00,40.5,37.0,30.14,North,360,0.0,2.0,87,0.00,,,0.00,weatherlink.com 1.10,2013-01-03 08:45:00,
2013-01-03 04:00:00,40.4,37.0,30.13,North,10,0.0,4.0,86,0.00,,,0.00,weatherlink.com 1.10,2013-01-03 09:00:00,
2013-01-03 04:15:00,40.2,37.0,30.10,ENE,62,1.0,2.0,88,0.00,,,0.00,weatherlink.com 1.10,2013-01-03 09:15:00,
2013-01-03 04:30:00,40.1,37.0,30.12,NW,324,0.0,3.0,87,0.00,,,0.00,weatherlink.com 1.10,2013-01-03 09:30:00,
2013-01-03 04:45:00,40.3,37.0,30.13,NW,323,2.0,2.0,89,0.00,,,0.00,weatherlink.com 1.10,2013-01-03 09:45:00,
2013-01-03 05:00:00,40.3,37.0,30.12,NW,323,0.0,3.0,87,0.00,,,0.00,weatherlink.com 1.10,2013-01-03 10:00:00,
2013-01-03 05:15:00,40.2,37.0,30.12,NW,314,0.0,5.0,87,0.00,,,0.00,weatherlink.com 1.10,2013-01-03 10:15:00,
2013-01-03 05:30:00,40.2,37.0,30.13,West,281,0.0,4.0,87,0.00,,,0.00,weatherlink.com 1.10,2013-01-03 10:30:00,
2013-01-03 05:45:00,40.0,37.0,30.14,WNW,299,1.0,6.0,87,0.00,,,0.00,weatherlink.com 1.10,2013-01-03 10:45:00,
2013-01-03 06:00:00,39.9,36.0,30.13,NE,35,0.0,4.0,87,0.00,,,0.00,weatherlink.com 1.10,2013-01-03 11:00:00,
2013-01-03 06:15:00,39.8,36.0,30.14,WNW,297,1.0,4.0,87,0.00,,,0.00,weatherlink.com 1.10,2013-01-03 11:15:00,
2013-01-03 06:30:00,39.8,36.0,30.14,West,263,1.0,4.0,87,0.00,,,0.00,weatherlink.com 1.10,2013-01-03 11:30:00,
2013-01-03 06:45:00,39.6,36.0,30.14,NW,322,0.0,4.0,88,0.00,,,0.00,weatherlink.com 1.10,2013-01-03 11:45:00,
2013-01-03 07:00:00,39.6,36.0,30.15,NW,310,2.0,4.0,88,0.00,,,0.00,weatherlink.com 1.10,2013-01-03 12:00:00,
2013-01-03 07:15:00,39.5,36.0,30.16,NW,309,3.0,5.0,88,0.00,,,0.00,weatherlink.com 1.10,2013-01-03 12:15:00,
2013-01-03 07:30:00,39.5,36.0,30.16,WNW,292,3.0,6.0,88,0.00,,,0.00,weatherlink.com 1.10,2013-01-03 12:30:00,
2013-01-03 07:45:00,39.3,36.0,30.16,WNW,303,1.0,7.0,87,0.00,,,0.00,weatherlink.com 1.10,2013-01-03 12:45:00,
2013-01-03 08:00:00,39.3,36.0,30.17,NW,324,1.0,6.0,87,0.00,,,0.00,weatherlink.com 1.10,2013-01-03 13:00:00,
2013-01-03 08:15:00,39.1,36.0,30.18,NNW,341,3.0,8.0,88,0.00,,,0.00,weatherlink.com 1.10,2013-01-03 13:15:00,
2013-01-03 08:31:00,39.1,36.0,30.18,North,355,1.0,6.0,89,0.00,,,0.00,weatherlink.com 1.10,2013-01-03 13:31:00,
2013-01-03 08:46:00,38.8,36.0,30.18,West,281,5.0,8.0,91,0.00,,,0.00,weatherlink.com 1.10,2013-01-03 13:46:00,
2013-01-03 09:01:00,38.3,37.0,30.19,WNW,289,2.0,7.0,94,0.00,,,0.00,weatherlink.com 1.10,2013-01-03 14:01:00,
2013-01-03 09:16:00,37.6,37.0,30.18,NW,310,4.0,6.0,96,0.00,,,0.00,weatherlink.com 1.10,2013-01-03 14:16:00,
2013-01-03 09:31:00,37.2,37.0,30.19,NW,316,1.0,8.0,98,0.00,,,0.00,weatherlink.com 1.10,2013-01-03 14:31:00,
2013-01-03 09:46:00,37.2,37.0,30.19,WNW,299,0.0,6.0,99,0.00,,,0.00,weatherlink.com 1.10,2013-01-03 14:46:00,
2013-01-03 10:01:00,37.5,38.0,30.20,WNW,289,1.0,3.0,100,0.00,,,0.00,weatherlink.com 1.10,2013-01-03 15:01:00,
2013-01-03 10:16:00,37.4,37.0,30.20,West,266,1.0,5.0,100,0.00,,,0.00,weatherlink.com 1.10,2013-01-03 15:16:00,
2013-01-03 10:31:00,37.5,38.0,30.20,WNW,298,3.0,6.0,100,0.00,,,0.00,weatherlink.com 1.10,2013-01-03 15:31:00,
2013-01-03 10:46:00,37.9,38.0,30.20,WNW,285,4.0,6.0,100,0.00,,,0.00,weatherlink.com 1.10,2013-01-03 15:46:00,
2013-01-03 11:01:00,38.1,38.0,30.20,WNW,286,2.0,6.0,99,0.00,,,0.00,weatherlink.com 1.10,2013-01-03 16:01:00,
2013-01-03 11:16:00,38.2,38.0,30.20,WNW,299,0.0,5.0,99,0.00,,,0.00,weatherlink.com 1.10,2013-01-03 16:16:00,
2013-01-03 11:31:00,38.5,38.0,30.19,North,4,0.0,4.0,98,0.00,,,0.00,weatherlink.com 1.10,2013-01-03 16:31:00,
2013-01-03 11:46:00,38.9,38.0,30.19,West,274,3.0,6.0,96,0.00,,,0.00,weatherlink.com 1.10,2013-01-03 16:46:00,
2013-01-03 12:01:00,39.2,38.0,30.18,WNW,299,0.0,4.0,95,0.00,,,0.00,weatherlink.com 1.10,2013-01-03 17:01:00,
2013-01-03 12:16:00,39.4,38.0,30.18,NW,323,0.0,6.0,93,0.00,,,0.00,weatherlink.com 1.10,2013-01-03 17:16:00,
2013-01-03 12:31:00,39.9,38.0,30.17,West,273,5.0,5.0,92,0.00,,,0.00,weatherlink.com 1.10,2013-01-03 17:31:00,
2013-01-03 12:46:00,40.0,38.0,30.17,NW,318,0.0,4.0,92,0.00,,,0.00,weatherlink.com 1.10,2013-01-03 17:46:00,
2013-01-03 13:01:00,40.0,38.0,30.16,West,259,2.0,4.0,92,0.00,,,0.00,weatherlink.com 1.10,2013-01-03 18:01:00,
2013-01-03 13:16:00,40.1,38.0,30.16,West,262,2.0,3.0,91,0.00,,,0.00,weatherlink.com 1.10,2013-01-03 18:16:00,
2013-01-03 13:31:00,40.2,38.0,30.16,WNW,293,3.0,3.0,92,0.00,,,0.00,weatherlink.com 1.10,2013-01-03 18:31:00,
2013-01-03 13:46:00,40.4,38.0,30.15,NW,317,0.0,2.0,91,0.00,,,0.00,weatherlink.com 1.10,2013-01-03 18:46:00,
2013-01-03 14:01:00,40.8,38.0,30.15,NW,314,1.0,3.0,91,0.00,,,0.00,weatherlink.com 1.10,2013-01-03 19:01:00,
2013-01-03 15:01:00,41.7,39.0,30.18,WNW,300,0.0,4.0,89,0.00,,,0.00,weatherlink.com 1.10,2013-01-03 20:01:00,
2013-01-03 15:16:00,42.2,39.0,30.17,WNW,288,0.0,5.0,88,0.00,,,0.00,weatherlink.com 1.10,2013-01-03 20:16:00,
2013-01-03 15:31:00,42.5,39.0,30.18,WNW,290,3.0,3.0,88,0.00,,,0.00,weatherlink.com 1.10,2013-01-03 20:31:00,
2013-01-03 15:46:00,42.7,39.0,30.18,WNW,296,0.0,2.0,88,0.00,,,0.00,weatherlink.com 1.10,2013-01-03 20:46:00,
2013-01-03 16:01:00,42.5,39.0,30.19,WSW,256,0.0,3.0,87,0.00,,,0.00,weatherlink.com 1.10,2013-01-03 21:01:00,
2013-01-03 16:16:00,42.4,39.0,30.19,NW,322,2.0,4.0,87,0.00,,,0.00,weatherlink.com 1.10,2013-01-03 21:16:00,
2013-01-03 16:31:00,42.4,39.0,30.20,NW,322,0.0,2.0,88,0.00,,,0.00,weatherlink.com 1.10,2013-01-03 21:31:00,
2013-01-03 16:46:00,42.4,39.0,30.20,WSW,255,0.0,2.0,88,0.00,,,0.00,weatherlink.com 1.10,2013-01-03 21:46:00,
2013-01-03 17:01:00,41.9,39.0,30.21,West,280,0.0,4.0,88,0.00,,,0.00,weatherlink.com 1.10,2013-01-03 22:01:00,
2013-01-03 17:16:00,41.5,39.0,30.21,West,280,0.0,2.0,89,0.00,,,0.00,weatherlink.com 1.10,2013-01-03 22:16:00,
2013-01-03 17:31:00,41.0,38.0,30.21,West,280,0.0,2.0,90,0.00,,,0.00,weatherlink.com 1.10,2013-01-03 22:31:00,
2013-01-03 17:46:00,40.5,38.0,30.21,West,280,0.0,0.0,91,0.00,,,0.00,weatherlink.com 1.10,2013-01-03 22:46:00,
2013-01-03 18:01:00,40.0,38.0,30.22,West,280,0.0,0.0,92,0.00,,,0.00,weatherlink.com 1.10,2013-01-03 23:01:00,
2013-01-03 18:16:00,38.9,37.0,30.23,West,280,0.0,0.0,93,0.00,,,0.00,weatherlink.com 1.10,2013-01-03 23:16:00,
2013-01-03 18:31:00,38.2,37.0,30.23,West,280,0.0,0.0,95,0.00,,,0.00,weatherlink.com 1.10,2013-01-03 23:31:00,
2013-01-03 18:46:00,37.7,37.0,30.24,West,280,0.0,0.0,96,0.00,,,0.00,weatherlink.com 1.10,2013-01-03 23:46:00,
2013-01-03 19:01:00,37.2,36.0,30.25,West,280,0.0,0.0,96,0.00,,,0.00,weatherlink.com 1.10,2013-01-04 00:01:00,
2013-01-03 19:16:00,36.4,36.0,30.25,West,280,0.0,0.0,97,0.00,,,0.00,weatherlink.com 1.10,2013-01-04 00:16:00,
2013-01-03 19:31:00,35.8,35.0,30.25,West,280,0.0,0.0,98,0.00,,,0.00,weatherlink.com 1.10,2013-01-04 00:31:00,
2013-01-03 19:46:00,35.0,35.0,30.26,West,280,0.0,0.0,98,0.00,,,0.00,weatherlink.com 1.10,2013-01-04 00:46:00,
2013-01-03 20:01:00,34.4,34.0,30.26,West,280,0.0,0.0,99,0.00,,,0.00,weatherlink.com 1.10,2013-01-04 01:01:00,
2013-01-03 20:16:00,34.3,34.0,30.27,West,280,0.0,0.0,99,0.00,,,0.00,weatherlink.com 1.10,2013-01-04 01:16:00,
2013-01-03 20:31:00,34.2,34.0,30.27,West,280,0.0,0.0,100,0.00,,,0.00,weatherlink.com 1.10,2013-01-04 01:31:00,
2013-01-03 20:46:00,34.0,34.0,30.27,West,280,0.0,0.0,100,0.00,,,0.00,weatherlink.com 1.10,2013-01-04 01:46:00,
2013-01-03 21:01:00,33.8,34.0,30.27,West,280,0.0,0.0,100,0.00,,,0.00,weatherlink.com 1.10,2013-01-04 02:01:00,
2013-01-03 21:16:00,33.5,34.0,30.27,West,280,0.0,1.0,100,0.00,,,0.00,weatherlink.com 1.10,2013-01-04 02:16:00,
2013-01-03 21:32:00,33.3,33.0,30.27,West,280,0.0,1.0,100,0.00,,,0.00,weatherlink.com 1.10,2013-01-04 02:32:00,
2013-01-03 21:47:00,32.8,33.0,30.28,West,280,0.0,0.0,100,0.00,,,0.00,weatherlink.com 1.10,2013-01-04 02:47:00,
2013-01-03 22:02:00,32.4,32.0,30.29,West,280,0.0,0.0,100,0.00,,,0.00,weatherlink.com 1.10,2013-01-04 03:02:00,
2013-01-03 22:17:00,32.4,32.0,30.28,West,280,0.0,0.0,100,0.00,,,0.00,weatherlink.com 1.10,2013-01-04 03:17:00,
2013-01-03 22:32:00,32.1,32.0,30.29,West,280,0.0,0.0,100,0.00,,,0.00,weatherlink.com 1.10,2013-01-04 03:32:00,
2013-01-03 22:47:00,30.6,31.0,30.29,West,280,0.0,0.0,100,0.00,,,0.00,weatherlink.com 1.10,2013-01-04 03:47:00,
2013-01-03 23:02:00,30.5,31.0,30.29,West,280,0.0,0.0,100,0.00,,,0.00,weatherlink.com 1.10,2013-01-04 04:02:00,
2013-01-03 23:17:00,30.8,31.0,30.28,West,280,0.0,0.0,100,0.00,,,0.00,weatherlink.com 1.10,2013-01-04 04:17:00,
2013-01-03 23:32:00,30.1,30.0,30.29,West,280,0.0,0.0,100,0.00,,,0.00,weatherlink.com 1.10,2013-01-04 04:32:00,
2013-01-03 23:47:00,28.6,29.0,30.29,West,280,0.0,1.0,100,0.00,,,0.00,weatherlink.com 1.10,2013-01-04 04:47:00,